Language: 


Des rapports , des résumés tant et plus, au choix de chacun....


Données statistiques de la station
Quotidien Rapport Mai 1, 2017 Unités:  Métrique    Anglais   les deux
« Précédent Jour
Suivant Jour »
Quotidien Hebdomadaire Mensuel Annuel Actuel
  Haut: Bas: Moyen:
Température: 17.0 °C 7.8 °C 11.6 °C
Pt de rosée: 10.0 °C 5.0 °C 7.2 °C
Humidité: 94 % 49 % 74 %
Vitesse du vent: 32.0 km/h 0.0 km/h 9 km/h
Rafales: 32.0 km/h - -
Vent:- - South
Pression: 1014.1 hPa 998.9 hPa -
Précipitation: 0.3 mm    
Historical Graphs
 
 
Données statistiques pour Mai 1, 2017
Heure Température Point de rosée Pression Vent Vitesse du vent Refales Humidité Pluie (taux horaire)
00:01 13.9 °C 8.0 °C 998.9 hPa SSW 10.1 km/h 23.3 km/h 65 % 0.0 mm
00:06 13.8 °C 8.0 °C 998.9 hPa SSW 9.7 km/h 23.3 km/h 65 % 0.0 mm
00:11 13.7 °C 8.0 °C 998.9 hPa SSW 14.0 km/h 19.8 km/h 66 % 0.0 mm
00:16 13.5 °C 8.0 °C 998.9 hPa WSW 17.7 km/h 19.5 km/h 68 % 0.0 mm
00:21 13.3 °C 8.0 °C 999.9 hPa WSW 12.2 km/h 19.5 km/h 68 % 0.0 mm
00:26 13.2 °C 8.0 °C 999.9 hPa SW 11.9 km/h 20.6 km/h 70 % 0.0 mm
00:31 13.0 °C 8.0 °C 999.9 hPa SSW 9.7 km/h 20.6 km/h 70 % 0.0 mm
00:36 12.9 °C 8.0 °C 999.9 hPa SW 10.5 km/h 17.7 km/h 71 % 0.0 mm
00:41 12.7 °C 8.0 °C 999.9 hPa South 9.7 km/h 17.7 km/h 73 % 0.0 mm
00:46 12.5 °C 8.0 °C 999.9 hPa SW 5.8 km/h 17.7 km/h 73 % 0.0 mm
00:51 12.4 °C 8.0 °C 999.9 hPa SW 5.8 km/h 16.6 km/h 73 % 0.0 mm
00:56 12.3 °C 9.0 °C 999.9 hPa SW 10.1 km/h 13.7 km/h 75 % 0.0 mm
01:01 12.2 °C 8.0 °C 999.9 hPa SW 9.0 km/h 13.7 km/h 75 % 0.0 mm
01:07 12.1 °C 8.0 °C 999.9 hPa SSW 6.9 km/h 14.0 km/h 76 % 0.0 mm
01:12 12.0 °C 9.0 °C 999.9 hPa SSW 16.9 km/h 18.0 km/h 78 % 0.0 mm
01:17 12.0 °C 9.0 °C 999.9 hPa WSW 6.9 km/h 18.0 km/h 79 % 0.0 mm
01:22 11.9 °C 9.0 °C 1000.9 hPa WSW 9.0 km/h 16.9 km/h 80 % 0.0 mm
01:27 11.9 °C 9.0 °C 1000.9 hPa SW 11.9 km/h 21.2 km/h 82 % 0.0 mm
01:32 11.8 °C 9.0 °C 1000.9 hPa WSW 19.5 km/h 21.2 km/h 84 % 0.0 mm
01:37 11.5 °C 9.0 °C 1000.9 hPa South 11.9 km/h 19.5 km/h 85 % 0.0 mm
01:42 11.3 °C 9.0 °C 1000.9 hPa SSW 6.1 km/h 16.6 km/h 86 % 0.0 mm
01:47 11.2 °C 9.0 °C 1000.9 hPa WSW 7.9 km/h 16.6 km/h 86 % 0.0 mm
01:52 11.0 °C 9.0 °C 1000.9 hPa SSW 2.1 km/h 16.3 km/h 87 % 0.0 mm
01:55 11.0 °C 9.0 °C 1000.9 hPa SW 8.7 km/h 16.3 km/h 87 % 0.0 mm
02:00 10.9 °C 9.0 °C 1000.9 hPa WSW 10.1 km/h 12.6 km/h 88 % 0.0 mm
02:05 10.8 °C 9.0 °C 1000.9 hPa South 7.9 km/h 17.2 km/h 90 % 0.0 mm
02:10 10.7 °C 9.0 °C 1000.9 hPa South 6.9 km/h 17.2 km/h 90 % 0.0 mm
02:15 10.7 °C 9.0 °C 1000.9 hPa South 4.7 km/h 14.0 km/h 90 % 0.0 mm
02:20 10.7 °C 9.0 °C 1000.9 hPa South 5.5 km/h 13.0 km/h 90 % 0.0 mm
02:25 10.6 °C 9.0 °C 1000.9 hPa Calm   10.5 km/h 90 % 0.0 mm
02:30 10.6 °C 9.0 °C 1000.9 hPa South 9.0 km/h 9.3 km/h 90 % 0.0 mm
02:35 10.6 °C 9.0 °C 1000.9 hPa South 2.6 km/h 13.0 km/h 90 % 0.0 mm
02:40 10.6 °C 9.0 °C 1000.9 hPa SSE 2.1 km/h 13.0 km/h 90 % 0.0 mm
02:45 10.6 °C 9.0 °C 1000.9 hPa South 5.8 km/h 12.6 km/h 91 % 0.3 mm
02:50 10.6 °C 9.0 °C 999.9 hPa South 1.8 km/h 13.0 km/h 91 % 0.3 mm
02:55 10.5 °C 9.0 °C 999.9 hPa SSE 6.1 km/h 13.0 km/h 92 % 0.3 mm
02:57 10.5 °C 9.0 °C 999.9 hPa South 5.5 km/h 13.0 km/h 92 % 0.3 mm
03:02 10.5 °C 9.0 °C 999.9 hPa SSW 5.5 km/h 11.9 km/h 92 % 0.3 mm
03:07 10.5 °C 10.0 °C 999.9 hPa SSE 9.3 km/h 11.9 km/h 93 % 0.3 mm
03:13 10.5 °C 10.0 °C 999.9 hPa SSE 2.6 km/h 11.9 km/h 93 % 0.3 mm
03:18 10.5 °C 10.0 °C 999.9 hPa Calm   10.5 km/h 93 % 0.3 mm
03:23 10.5 °C 10.0 °C 1000.9 hPa South 9.0 km/h 12.6 km/h 93 % 0.3 mm
03:28 10.5 °C 10.0 °C 1000.9 hPa South 3.5 km/h 18.0 km/h 93 % 0.3 mm
03:33 10.5 °C 10.0 °C 1000.9 hPa South 9.3 km/h 18.0 km/h 93 % 0.3 mm
03:38 10.5 °C 10.0 °C 1000.9 hPa SSW 4.3 km/h 15.8 km/h 94 % 0.3 mm
03:43 10.4 °C 9.0 °C 1000.9 hPa South 8.7 km/h 15.8 km/h 94 % 0.3 mm
03:48 10.4 °C 9.0 °C 1000.9 hPa South 9.0 km/h 13.7 km/h 94 % 0.0 mm
03:53 10.4 °C 9.0 °C 1001.9 hPa South 12.6 km/h 15.4 km/h 94 % 0.0 mm
03:58 10.4 °C 9.0 °C 1001.9 hPa South 14.0 km/h 15.4 km/h 94 % 0.0 mm
04:03 10.4 °C 9.0 °C 1001.9 hPa SSE 10.5 km/h 17.7 km/h 94 % 0.0 mm
04:08 10.3 °C 9.0 °C 1001.9 hPa SSW 10.1 km/h 17.7 km/h 94 % 0.0 mm
04:13 10.3 °C 9.0 °C 1001.9 hPa South 15.4 km/h 15.4 km/h 94 % 0.0 mm
04:18 10.3 °C 9.0 °C 1001.9 hPa SSW 9.7 km/h 21.6 km/h 94 % 0.0 mm
04:23 10.2 °C 9.0 °C 1001.9 hPa SSW 15.1 km/h 21.6 km/h 93 % 0.0 mm
04:28 10.2 °C 9.0 °C 1001.9 hPa SSW 13.0 km/h 21.2 km/h 92 % 0.0 mm
04:33 10.2 °C 9.0 °C 1001.9 hPa SSW 15.8 km/h 20.9 km/h 92 % 0.0 mm
04:38 10.1 °C 9.0 °C 1001.9 hPa South 10.5 km/h 20.9 km/h 91 % 0.0 mm
04:43 10.1 °C 9.0 °C 1001.9 hPa SW 9.3 km/h 16.9 km/h 91 % 0.0 mm
04:48 10.1 °C 9.0 °C 1001.9 hPa South 14.0 km/h 16.9 km/h 90 % 0.0 mm
04:53 10.1 °C 9.0 °C 1001.9 hPa SSW 4.7 km/h 16.9 km/h 90 % 0.0 mm
04:58 10.1 °C 9.0 °C 1001.9 hPa South 9.0 km/h 16.9 km/h 90 % 0.0 mm
05:03 10.1 °C 9.0 °C 1001.9 hPa South 10.1 km/h 13.0 km/h 90 % 0.0 mm
05:08 10.1 °C 9.0 °C 1001.9 hPa South 11.9 km/h 13.7 km/h 90 % 0.0 mm
05:13 10.1 °C 9.0 °C 1001.9 hPa South 9.7 km/h 19.8 km/h 90 % 0.0 mm
05:19 10.1 °C 9.0 °C 1001.9 hPa South 6.4 km/h 19.8 km/h 90 % 0.0 mm
05:24 10.1 °C 9.0 °C 1002.9 hPa SSW 6.1 km/h 15.8 km/h 89 % 0.0 mm
05:29 10.0 °C 9.0 °C 1002.9 hPa South 4.0 km/h 14.8 km/h 89 % 0.0 mm
05:34 10.0 °C 9.0 °C 1002.9 hPa South 10.1 km/h 16.3 km/h 89 % 0.0 mm
05:39 10.0 °C 9.0 °C 1001.9 hPa SSW 13.0 km/h 16.6 km/h 89 % 0.0 mm
05:44 10.0 °C 9.0 °C 1001.9 hPa South 7.9 km/h 16.6 km/h 89 % 0.0 mm
05:49 9.9 °C 9.0 °C 1001.9 hPa SSW 12.6 km/h 15.8 km/h 89 % 0.0 mm
05:54 9.8 °C 8.0 °C 1001.9 hPa South 11.6 km/h 15.8 km/h 88 % 0.0 mm
05:59 9.7 °C 8.0 °C 1001.9 hPa South 10.5 km/h 15.8 km/h 88 % 0.0 mm
06:04 9.6 °C 8.0 °C 1001.9 hPa SSE 9.7 km/h 15.4 km/h 88 % 0.0 mm
06:09 9.5 °C 8.0 °C 1001.9 hPa SSW 7.9 km/h 15.4 km/h 88 % 0.0 mm
06:14 9.5 °C 8.0 °C 1001.9 hPa SSE 7.9 km/h 12.2 km/h 88 % 0.0 mm
06:19 9.4 °C 8.0 °C 1001.9 hPa SSE 12.6 km/h 17.2 km/h 88 % 0.0 mm
06:24 9.4 °C 8.0 °C 1002.9 hPa SSE 2.6 km/h 17.2 km/h 89 % 0.0 mm
06:29 9.3 °C 8.0 °C 1002.9 hPa South 6.4 km/h 16.9 km/h 89 % 0.0 mm
06:34 9.3 °C 8.0 °C 1002.9 hPa SE 3.5 km/h 17.7 km/h 89 % 0.0 mm
06:39 9.2 °C 8.0 °C 1002.9 hPa SSE 8.7 km/h 17.7 km/h 89 % 0.0 mm
06:44 9.2 °C 8.0 °C 1002.9 hPa SE 9.7 km/h 13.7 km/h 89 % 0.0 mm
06:49 9.3 °C 8.0 °C 1002.9 hPa South 9.3 km/h 13.7 km/h 90 % 0.0 mm
06:54 9.3 °C 8.0 °C 1002.9 hPa SE 5.8 km/h 15.4 km/h 90 % 0.0 mm
06:59 9.3 °C 8.0 °C 1002.9 hPa ESE 9.3 km/h 17.2 km/h 90 % 0.0 mm
07:04 9.4 °C 8.0 °C 1002.9 hPa SE 13.0 km/h 17.2 km/h 89 % 0.0 mm
07:09 9.4 °C 8.0 °C 1002.9 hPa SSE 4.0 km/h 14.0 km/h 89 % 0.0 mm
07:14 9.5 °C 8.0 °C 1002.9 hPa SSE 5.8 km/h 15.4 km/h 88 % 0.0 mm
07:19 9.5 °C 8.0 °C 1002.9 hPa SSE 9.3 km/h 17.2 km/h 88 % 0.0 mm
07:24 9.5 °C 8.0 °C 1002.9 hPa South 6.1 km/h 17.7 km/h 87 % 0.0 mm
07:29 9.5 °C 8.0 °C 1002.9 hPa South 16.6 km/h 17.7 km/h 87 % 0.0 mm
07:34 9.6 °C 8.0 °C 1002.9 hPa SSE 6.1 km/h 21.2 km/h 86 % 0.0 mm
07:39 9.6 °C 8.0 °C 1002.9 hPa SE 15.1 km/h 21.2 km/h 86 % 0.0 mm
07:44 9.6 °C 8.0 °C 1002.9 hPa SE 9.0 km/h 28.5 km/h 86 % 0.0 mm
07:50 9.7 °C 8.0 °C 1002.9 hPa SSE 14.0 km/h 28.5 km/h 85 % 0.0 mm
07:55 9.7 °C 8.0 °C 1002.9 hPa SE 12.6 km/h 23.3 km/h 85 % 0.0 mm
08:00 9.7 °C 8.0 °C 1002.9 hPa SSW 19.5 km/h 20.6 km/h 85 % 0.0 mm
08:05 9.7 °C 7.0 °C 1002.9 hPa SSE 5.5 km/h 23.8 km/h 84 % 0.0 mm
08:10 9.7 °C 7.0 °C 1002.9 hPa SE 13.7 km/h 23.8 km/h 84 % 0.0 mm
08:15 9.7 °C 7.0 °C 1002.9 hPa SSE 1.4 km/h 23.0 km/h 83 % 0.0 mm
08:20 9.7 °C 7.0 °C 1002.9 hPa SSE 17.2 km/h 24.5 km/h 83 % 0.0 mm
08:25 9.8 °C 7.0 °C 1002.9 hPa SSE 9.3 km/h 24.8 km/h 83 % 0.0 mm
08:30 9.9 °C 7.0 °C 1002.9 hPa South 6.1 km/h 24.8 km/h 83 % 0.0 mm
08:35 10.0 °C 7.0 °C 1002.9 hPa SSE 9.3 km/h 21.2 km/h 82 % 0.0 mm
08:40 9.9 °C 7.0 °C 1003.9 hPa SSE 20.6 km/h 25.6 km/h 82 % 0.0 mm
08:45 9.8 °C 7.0 °C 1003.9 hPa SSW 13.7 km/h 25.6 km/h 83 % 0.0 mm
08:50 9.6 °C 7.0 °C 1002.9 hPa SSW 15.1 km/h 23.8 km/h 84 % 0.0 mm
08:55 9.6 °C 8.0 °C 1002.9 hPa South 16.9 km/h 20.9 km/h 85 % 0.0 mm
09:01 9.5 °C 8.0 °C 1002.9 hPa SSE 15.4 km/h 22.4 km/h 86 % 0.0 mm
09:06 9.4 °C 8.0 °C 1003.9 hPa South 15.4 km/h 28.0 km/h 87 % 0.0 mm
09:11 9.3 °C 8.0 °C 1003.9 hPa South 14.0 km/h 28.0 km/h 88 % 0.0 mm
09:16 9.4 °C 8.0 °C 1003.9 hPa SSE 16.6 km/h 24.5 km/h 89 % 0.0 mm
09:21 9.7 °C 8.0 °C 1005.0 hPa South 20.1 km/h 20.1 km/h 89 % 0.0 mm
09:26 10.2 °C 9.0 °C 1005.0 hPa SW 32.0 km/h 32.0 km/h 88 % 0.0 mm
09:31 10.4 °C 8.0 °C 1005.0 hPa SSW 16.9 km/h 32.0 km/h 86 % 0.0 mm
09:36 10.7 °C 8.0 °C 1005.0 hPa SSW 17.2 km/h 32.0 km/h 84 % 0.0 mm
09:41 10.4 °C 7.0 °C 1005.0 hPa SSE 20.1 km/h 28.8 km/h 81 % 0.0 mm
09:46 10.2 °C 7.0 °C 1005.0 hPa SSE 9.0 km/h 28.8 km/h 77 % 0.0 mm
09:51 10.3 °C 7.0 °C 1005.0 hPa SSE 20.6 km/h 28.5 km/h 78 % 0.0 mm
09:56 10.3 °C 6.0 °C 1005.0 hPa South 9.7 km/h 30.6 km/h 76 % 0.0 mm
10:01 10.2 °C 6.0 °C 1005.0 hPa South 17.7 km/h 30.6 km/h 76 % 0.0 mm
10:06 10.1 °C 6.0 °C 1005.0 hPa SSW 15.8 km/h 25.3 km/h 75 % 0.0 mm
10:11 10.0 °C 6.0 °C 1005.0 hPa SSW 14.0 km/h 24.8 km/h 74 % 0.0 mm
10:16 9.9 °C 6.0 °C 1005.0 hPa SSW 11.1 km/h 20.6 km/h 75 % 0.0 mm
10:21 10.0 °C 6.0 °C 1003.9 hPa South 20.9 km/h 20.9 km/h 75 % 0.0 mm
10:27 9.9 °C 6.0 °C 1003.9 hPa South 17.2 km/h 20.9 km/h 75 % 0.0 mm
10:32 9.9 °C 6.0 °C 1003.9 hPa SSW 12.2 km/h 19.5 km/h 75 % 0.0 mm
10:37 9.9 °C 6.0 °C 1005.0 hPa SSW 10.1 km/h 19.5 km/h 76 % 0.0 mm
10:42 9.9 °C 6.0 °C 1005.0 hPa SSW 6.4 km/h 24.5 km/h 76 % 0.0 mm
10:47 10.1 °C 6.0 °C 1005.0 hPa South 13.7 km/h 24.5 km/h 74 % 0.0 mm
10:52 10.5 °C 6.0 °C 1005.0 hPa South 10.5 km/h 21.2 km/h 74 % 0.0 mm
10:57 10.6 °C 6.0 °C 1005.0 hPa SE 17.2 km/h 21.2 km/h 73 % 0.0 mm
11:02 10.5 °C 6.0 °C 1005.0 hPa SSW 10.1 km/h 21.2 km/h 72 % 0.0 mm
11:07 10.4 °C 6.0 °C 1006.0 hPa South 11.6 km/h 21.2 km/h 73 % 0.0 mm
11:12 10.4 °C 6.0 °C 1006.0 hPa SSW 12.2 km/h 20.6 km/h 73 % 0.0 mm
11:17 10.4 °C 6.0 °C 1006.0 hPa SSW 21.6 km/h 24.8 km/h 72 % 0.0 mm
11:22 10.7 °C 6.0 °C 1006.0 hPa SSW 9.3 km/h 24.8 km/h 72 % 0.0 mm
11:33 11.3 °C 6.0 °C 1006.0 hPa WSW 19.1 km/h 21.2 km/h 71 % 0.0 mm
11:38 11.3 °C 6.0 °C 1006.0 hPa SW 9.3 km/h 21.2 km/h 70 % 0.0 mm
11:43 11.1 °C 6.0 °C 1006.0 hPa SSW 16.6 km/h 24.5 km/h 69 % 0.0 mm
11:48 11.1 °C 6.0 °C 1006.0 hPa South 10.8 km/h 24.5 km/h 70 % 0.0 mm
11:53 11.4 °C 6.0 °C 1006.0 hPa SSW 7.9 km/h 21.9 km/h 70 % 0.0 mm
11:58 11.6 °C 6.0 °C 1006.0 hPa SW 10.1 km/h 19.5 km/h 70 % 0.0 mm
12:03 11.5 °C 6.0 °C 1006.0 hPa SW 13.0 km/h 19.5 km/h 69 % 0.0 mm
12:08 11.5 °C 6.0 °C 1006.0 hPa South 12.2 km/h 20.9 km/h 68 % 0.0 mm
12:13 11.4 °C 6.0 °C 1006.0 hPa SW 16.9 km/h 20.9 km/h 67 % 0.0 mm
12:18 11.4 °C 6.0 °C 1006.0 hPa SSW 17.2 km/h 23.8 km/h 68 % 0.0 mm
12:23 11.5 °C 6.0 °C 1006.0 hPa SSW 13.7 km/h 24.8 km/h 66 % 0.0 mm
12:28 11.6 °C 6.0 °C 1006.0 hPa SW 12.2 km/h 24.8 km/h 66 % 0.0 mm
12:33 12.1 °C 6.0 °C 1006.0 hPa SW 12.6 km/h 24.5 km/h 66 % 0.0 mm
12:38 12.6 °C 7.0 °C 1007.0 hPa SSW 24.5 km/h 24.5 km/h 65 % 0.0 mm
12:43 12.6 °C 6.0 °C 1007.0 hPa South 17.2 km/h 24.5 km/h 63 % 0.0 mm
12:48 12.5 °C 6.0 °C 1007.0 hPa SSW 20.6 km/h 24.8 km/h 63 % 0.0 mm
12:53 12.5 °C 6.0 °C 1007.0 hPa SW 12.6 km/h 30.2 km/h 62 % 0.0 mm
12:58 12.7 °C 6.0 °C 1007.0 hPa SSW 12.2 km/h 30.2 km/h 63 % 0.0 mm
13:03 13.0 °C 6.0 °C 1007.0 hPa West 10.5 km/h 22.4 km/h 61 % 0.0 mm
13:08 13.3 °C 7.0 °C 1007.0 hPa SW 10.5 km/h 27.7 km/h 63 % 0.0 mm
13:13 13.4 °C 6.0 °C 1007.0 hPa SW 12.6 km/h 27.7 km/h 60 % 0.0 mm
13:18 13.5 °C 6.0 °C 1007.0 hPa South 10.5 km/h 24.8 km/h 59 % 0.0 mm
13:23 13.9 °C 6.0 °C 1007.0 hPa SSW 25.3 km/h 25.3 km/h 59 % 0.0 mm
13:28 13.9 °C 6.0 °C 1007.0 hPa WSW 20.9 km/h 25.3 km/h 58 % 0.0 mm
13:33 13.4 °C 5.0 °C 1007.0 hPa SSW 9.7 km/h 28.0 km/h 57 % 0.0 mm
13:38 13.3 °C 5.0 °C 1007.0 hPa South 10.1 km/h 28.0 km/h 57 % 0.0 mm
13:43 13.1 °C 5.0 °C 1007.0 hPa SSW 20.9 km/h 27.7 km/h 58 % 0.0 mm
13:48 13.0 °C 5.0 °C 1007.0 hPa SW 12.6 km/h 28.5 km/h 58 % 0.0 mm
13:53 12.9 °C 6.0 °C 1007.0 hPa SSW 15.4 km/h 28.5 km/h 60 % 0.0 mm
13:58 13.0 °C 6.0 °C 1007.0 hPa WSW 12.6 km/h 25.3 km/h 60 % 0.0 mm
14:04 12.9 °C 6.0 °C 1007.0 hPa SSW 10.1 km/h 23.3 km/h 60 % 0.0 mm
14:09 12.8 °C 6.0 °C 1008.0 hPa SSW 10.1 km/h 21.9 km/h 61 % 0.0 mm
14:14 13.1 °C 6.0 °C 1008.0 hPa SSW 9.7 km/h 24.8 km/h 60 % 0.0 mm
14:19 13.1 °C 6.0 °C 1008.0 hPa SSW 17.2 km/h 24.8 km/h 60 % 0.0 mm
14:24 13.0 °C 6.0 °C 1008.0 hPa SSW 14.0 km/h 20.6 km/h 60 % 0.0 mm
14:29 13.0 °C 6.0 °C 1008.0 hPa SSW 10.1 km/h 17.2 km/h 60 % 0.0 mm
14:34 13.1 °C 6.0 °C 1008.0 hPa South 14.0 km/h 20.9 km/h 60 % 0.0 mm
14:39 13.5 °C 6.0 °C 1009.0 hPa SW 10.5 km/h 20.9 km/h 61 % 0.0 mm
14:44 13.5 °C 6.0 °C 1009.0 hPa SSW 15.1 km/h 17.2 km/h 59 % 0.0 mm
14:49 13.3 °C 6.0 °C 1009.0 hPa SSW 10.5 km/h 24.8 km/h 59 % 0.0 mm
14:54 13.6 °C 6.0 °C 1009.0 hPa West 11.6 km/h 24.8 km/h 59 % 0.0 mm
14:59 14.5 °C 7.0 °C 1009.0 hPa South 14.0 km/h 20.6 km/h 60 % 0.0 mm
15:04 14.5 °C 6.0 °C 1009.0 hPa SSW 11.9 km/h 20.1 km/h 57 % 0.0 mm
15:10 14.3 °C 6.0 °C 1009.0 hPa SW 9.0 km/h 20.1 km/h 56 % 0.0 mm
15:15 14.2 °C 6.0 °C 1009.0 hPa SSW 16.6 km/h 23.0 km/h 56 % 0.0 mm
15:20 14.1 °C 6.0 °C 1009.0 hPa WSW 21.2 km/h 23.0 km/h 56 % 0.0 mm
15:25 13.8 °C 5.0 °C 1009.0 hPa South 13.0 km/h 21.2 km/h 56 % 0.0 mm
15:30 13.8 °C 5.0 °C 1009.0 hPa WSW 11.9 km/h 25.6 km/h 56 % 0.0 mm
15:35 14.1 °C 6.0 °C 1009.0 hPa South 9.0 km/h 25.6 km/h 56 % 0.0 mm
15:40 14.2 °C 6.0 °C 1009.0 hPa WSW 16.6 km/h 20.9 km/h 55 % 0.0 mm
15:44 14.4 °C 6.0 °C 1009.0 hPa WSW 6.4 km/h 19.8 km/h 56 % 0.0 mm
15:49 14.4 °C 6.0 °C 1009.0 hPa WSW 12.6 km/h 20.6 km/h 55 % 0.0 mm
15:54 14.2 °C 6.0 °C 1008.0 hPa SSW 11.9 km/h 20.6 km/h 54 % 0.0 mm
15:59 14.4 °C 6.0 °C 1008.0 hPa SW 13.7 km/h 15.4 km/h 55 % 0.0 mm
16:05 14.5 °C 6.0 °C 1008.0 hPa WSW 7.2 km/h 19.5 km/h 54 % 0.0 mm
16:10 14.5 °C 6.0 °C 1009.0 hPa WSW 9.3 km/h 19.5 km/h 53 % 0.0 mm
16:15 14.8 °C 6.0 °C 1009.0 hPa WSW 10.1 km/h 19.1 km/h 53 % 0.0 mm
16:20 16.3 °C 7.0 °C 1009.0 hPa South 9.3 km/h 19.1 km/h 52 % 0.0 mm
16:25 16.8 °C 7.0 °C 1009.0 hPa SW 13.7 km/h 17.7 km/h 51 % 0.0 mm
16:30 17.0 °C 6.0 °C 1009.0 hPa SW 6.1 km/h 17.7 km/h 49 % 0.0 mm
16:35 15.8 °C 6.0 °C 1009.0 hPa SE 15.4 km/h 21.2 km/h 50 % 0.0 mm
16:40 15.3 °C 6.0 °C 1009.0 hPa SSE 11.6 km/h 21.2 km/h 51 % 0.0 mm
16:45 14.9 °C 6.0 °C 1009.0 hPa SSW 17.7 km/h 19.5 km/h 53 % 0.0 mm
16:46 14.8 °C 6.0 °C 1009.0 hPa South 13.0 km/h 19.5 km/h 53 % 0.0 mm
16:51 14.7 °C 6.0 °C 1010.0 hPa SSE 4.7 km/h 19.5 km/h 53 % 0.0 mm
16:56 15.3 °C 6.0 °C 1010.0 hPa SSE 5.0 km/h 17.2 km/h 55 % 0.0 mm
17:01 15.8 °C 7.0 °C 1010.0 hPa SW 10.1 km/h 17.2 km/h 56 % 0.0 mm
17:06 15.0 °C 6.0 °C 1010.0 hPa SSE 17.2 km/h 19.8 km/h 55 % 0.0 mm
17:11 14.5 °C 6.0 °C 1010.0 hPa SSE 9.7 km/h 19.8 km/h 55 % 0.0 mm
17:16 14.3 °C 6.0 °C 1010.0 hPa SE 6.1 km/h 21.2 km/h 56 % 0.0 mm
17:21 14.1 °C 6.0 °C 1010.0 hPa SSW 5.8 km/h 21.2 km/h 57 % 0.0 mm
17:26 13.8 °C 6.0 °C 1010.0 hPa WSW 17.2 km/h 21.2 km/h 57 % 0.0 mm
17:31 13.3 °C 6.0 °C 1010.0 hPa SSW 12.2 km/h 21.2 km/h 59 % 0.0 mm
17:36 12.6 °C 6.0 °C 1011.1 hPa WSW 10.1 km/h 17.2 km/h 64 % 0.0 mm
17:41 12.3 °C 6.0 °C 1011.1 hPa SSW 5.5 km/h 14.0 km/h 66 % 0.0 mm
17:46 12.2 °C 7.0 °C 1011.1 hPa West 5.5 km/h 9.3 km/h 68 % 0.0 mm
17:51 12.3 °C 7.0 °C 1011.1 hPa WNW 5.0 km/h 8.7 km/h 70 % 0.0 mm
17:56 12.4 °C 8.0 °C 1011.1 hPa Calm   8.7 km/h 71 % 0.0 mm
18:01 13.1 °C 9.0 °C 1011.1 hPa Calm   5.0 km/h 72 % 0.0 mm
18:06 14.0 °C 9.0 °C 1011.1 hPa Calm   4.0 km/h 72 % 0.0 mm
18:11 14.6 °C 10.0 °C 1011.1 hPa West 2.1 km/h 3.2 km/h 72 % 0.0 mm
18:16 15.0 °C 9.0 °C 1011.1 hPa Calm   2.6 km/h 69 % 0.0 mm
18:21 15.5 °C 10.0 °C 1011.1 hPa Calm   5.8 km/h 68 % 0.0 mm
18:26 15.6 °C 9.0 °C 1011.1 hPa ESE 2.6 km/h 5.8 km/h 65 % 0.0 mm
18:27 15.6 °C 9.0 °C 1011.1 hPa Calm   5.8 km/h 65 % 0.0 mm
18:32 15.9 °C 10.0 °C 1011.1 hPa Calm   7.6 km/h 65 % 0.0 mm
18:37 15.6 °C 9.0 °C 1011.1 hPa Calm   7.9 km/h 63 % 0.0 mm
18:42 14.9 °C 8.0 °C 1011.1 hPa SSW 5.5 km/h 9.7 km/h 62 % 0.0 mm
18:47 15.1 °C 8.0 °C 1011.1 hPa SSW 5.0 km/h 9.7 km/h 62 % 0.0 mm
18:52 15.4 °C 8.0 °C 1011.1 hPa SSW 6.9 km/h 11.6 km/h 61 % 0.0 mm
18:57 15.5 °C 8.0 °C 1011.1 hPa WSW 6.4 km/h 11.6 km/h 60 % 0.0 mm
19:02 15.7 °C 8.0 °C 1011.1 hPa Calm   9.7 km/h 60 % 0.0 mm
19:07 15.7 °C 8.0 °C 1011.1 hPa South 6.1 km/h 12.2 km/h 59 % 0.0 mm
19:12 15.6 °C 8.0 °C 1011.1 hPa South 6.9 km/h 12.2 km/h 58 % 0.0 mm
19:17 15.4 °C 6.0 °C 1011.1 hPa Calm   11.9 km/h 55 % 0.0 mm
19:22 15.4 °C 6.0 °C 1011.1 hPa WSW 7.9 km/h 12.6 km/h 55 % 0.0 mm
19:27 15.3 °C 6.0 °C 1011.1 hPa South 6.1 km/h 12.6 km/h 54 % 0.0 mm
19:32 15.2 °C 6.0 °C 1011.1 hPa SSW 2.6 km/h 11.9 km/h 54 % 0.0 mm
19:37 15.1 °C 6.0 °C 1011.1 hPa SSE 6.1 km/h 9.7 km/h 54 % 0.0 mm
19:42 15.1 °C 6.0 °C 1011.1 hPa Calm   11.9 km/h 55 % 0.0 mm
19:47 15.0 °C 6.0 °C 1011.1 hPa South 4.3 km/h 11.9 km/h 55 % 0.0 mm
19:52 14.8 °C 6.0 °C 1011.1 hPa SE 2.6 km/h 10.5 km/h 56 % 0.0 mm
19:58 14.5 °C 6.0 °C 1011.1 hPa Calm   9.0 km/h 56 % 0.0 mm
20:03 14.1 °C 6.0 °C 1011.1 hPa Calm   9.3 km/h 57 % 0.0 mm
20:08 13.8 °C 6.0 °C 1011.1 hPa Calm   9.3 km/h 57 % 0.0 mm
20:13 13.6 °C 6.0 °C 1011.1 hPa Calm   10.8 km/h 57 % 0.0 mm
20:23 13.2 °C 6.0 °C 1010.0 hPa Calm   6.9 km/h 58 % 0.0 mm
20:28 13.0 °C 6.0 °C 1010.0 hPa ESE 1.8 km/h 7.2 km/h 59 % 0.0 mm
20:33 12.7 °C 6.0 °C 1010.0 hPa SE 9.0 km/h 9.0 km/h 61 % 0.0 mm
20:38 12.5 °C 6.0 °C 1011.1 hPa East 6.4 km/h 10.5 km/h 63 % 0.0 mm
20:43 12.3 °C 6.0 °C 1011.1 hPa ESE 5.5 km/h 10.5 km/h 63 % 0.0 mm
20:48 12.1 °C 6.0 °C 1011.1 hPa East 6.4 km/h 10.5 km/h 66 % 0.0 mm
20:53 11.9 °C 6.0 °C 1011.1 hPa East 2.6 km/h 11.6 km/h 67 % 0.0 mm
20:58 11.7 °C 6.0 °C 1011.1 hPa ESE 7.9 km/h 11.6 km/h 67 % 0.0 mm
21:03 11.6 °C 6.0 °C 1011.1 hPa ESE 7.9 km/h 10.1 km/h 68 % 0.0 mm
21:08 11.5 °C 6.0 °C 1011.1 hPa ESE 3.5 km/h 8.7 km/h 69 % 0.0 mm
21:13 11.1 °C 6.0 °C 1011.1 hPa Calm   9.3 km/h 69 % 0.0 mm
21:18 10.9 °C 6.0 °C 1011.1 hPa East 5.0 km/h 9.3 km/h 71 % 0.0 mm
21:23 10.7 °C 6.0 °C 1011.1 hPa Calm   7.9 km/h 71 % 0.0 mm
21:28 10.5 °C 6.0 °C 1011.1 hPa Calm   5.0 km/h 72 % 0.0 mm
21:33 10.3 °C 6.0 °C 1011.1 hPa Calm   6.1 km/h 72 % 0.0 mm
21:38 10.2 °C 6.0 °C 1012.1 hPa Calm   6.1 km/h 72 % 0.0 mm
21:43 10.1 °C 6.0 °C 1012.1 hPa Calm     74 % 0.0 mm
21:49 10.0 °C 6.0 °C 1012.1 hPa Calm   6.1 km/h 74 % 0.0 mm
21:54 9.9 °C 6.0 °C 1012.1 hPa Calm   8.7 km/h 75 % 0.0 mm
22:04 9.7 °C 6.0 °C 1012.1 hPa Calm   6.1 km/h 75 % 0.0 mm
22:09 9.5 °C 6.0 °C 1012.1 hPa Calm   5.5 km/h 75 % 0.0 mm
22:14 9.4 °C 6.0 °C 1012.1 hPa East 1.8 km/h 7.9 km/h 76 % 0.0 mm
22:19 9.3 °C 6.0 °C 1012.1 hPa East 1.8 km/h 7.9 km/h 75 % 0.0 mm
22:24 9.1 °C 5.0 °C 1012.1 hPa Calm   6.9 km/h 76 % 0.0 mm
22:29 9.0 °C 5.0 °C 1012.1 hPa Calm   6.9 km/h 76 % 0.0 mm
22:34 9.0 °C 5.0 °C 1012.1 hPa Calm   7.2 km/h 76 % 0.0 mm
22:39 8.9 °C 6.0 °C 1013.1 hPa ENE 3.2 km/h 7.2 km/h 77 % 0.0 mm
22:44 8.8 °C 6.0 °C 1013.1 hPa East 6.9 km/h 7.9 km/h 78 % 0.0 mm
22:49 8.8 °C 6.0 °C 1013.1 hPa East 7.6 km/h 9.3 km/h 78 % 0.0 mm
22:54 8.8 °C 6.0 °C 1013.1 hPa Calm   9.3 km/h 79 % 0.0 mm
22:59 8.7 °C 6.0 °C 1013.1 hPa ESE 4.7 km/h 7.9 km/h 79 % 0.0 mm
23:04 8.7 °C 6.0 °C 1013.1 hPa Calm   7.6 km/h 79 % 0.0 mm
23:09 8.6 °C 6.0 °C 1013.1 hPa Calm   7.6 km/h 80 % 0.0 mm
23:14 8.5 °C 6.0 °C 1013.1 hPa East 2.1 km/h 7.6 km/h 80 % 0.0 mm
23:19 8.5 °C 6.0 °C 1013.1 hPa Calm   5.8 km/h 80 % 0.0 mm
23:29 8.4 °C 6.0 °C 1013.1 hPa Calm   5.8 km/h 80 % 0.0 mm
23:34 8.3 °C 6.0 °C 1013.1 hPa ENE 1.4 km/h 5.8 km/h 80 % 0.0 mm
23:36 8.2 °C 5.0 °C 1014.1 hPa East 1.4 km/h 5.8 km/h 80 % 0.0 mm
23:41 8.1 °C 5.0 °C 1014.1 hPa Calm   6.1 km/h 80 % 0.0 mm
23:46 8.0 °C 5.0 °C 1014.1 hPa Calm   6.1 km/h 80 % 0.0 mm
23:51 7.9 °C 5.0 °C 1013.1 hPa Calm   3.5 km/h 81 % 0.0 mm
23:56 7.8 °C 5.0 °C 1013.1 hPa Calm   3.5 km/h 81 % 0.0 mm
Le Gheer Warneton
Courtoisie de Weather Underground - 2.25 mb

Mise a jour : 17-12-17 03:27:12
Généré par Cumulus 1.9.4 (1099)